Location: Foligno
(42.9600°N, 12.7050°E)
Time: 22:18:46
(UTC+02:00)

ISS - Pass Details

Date: 14 July 2018
Orbit: 402 x 408 km, 51.6° (Epoch: 17 July)

Event Time Altitude Azimuth Distance (km) Brightness Sun altitude
Exits shadow 02:40:23 20° 310° (NW) 1,022 -1.6 -22.4°
Maximum altitude 02:41:36 24° 344° (NNW) 885 -1.6 -22.3°
Drops below altitude 10° 02:44:22 10° 41° (NE) 1,471 0.0 -22.1°
Sets 02:46:43 0° 56° (NE) 2,334 1.0 -22.0°
